Time,TemperatureF,DewpointF,PressureIn,WindDirection,WindDirectionDegrees,WindSpeedMPH,WindSpeedGustMPH,Humidity,HourlyPrecipIn,Conditions,Clouds,dailyrainin,SoftwareType,DateUTC
2013-11-26 00:09:00,65.1,65.0,29.84,SE,129,7.0,8.0,100,0.02,,,0.00,weatherlink.com 1.10,2013-11-26 06:09:00,
2013-11-26 00:24:00,65.1,65.0,29.83,East,80,5.0,9.0,100,0.02,,,0.01,weatherlink.com 1.10,2013-11-26 06:24:00,
2013-11-26 00:39:00,66.5,67.0,29.83,ENE,65,10.0,12.0,100,0.03,,,0.03,weatherlink.com 1.10,2013-11-26 06:39:00,
2013-11-26 00:54:00,66.6,67.0,29.82,ESE,103,1.0,12.0,100,0.07,,,0.07,weatherlink.com 1.10,2013-11-26 06:54:00,
2013-11-26 01:09:00,66.4,66.0,29.81,East,100,8.0,8.0,100,0.10,,,0.10,weatherlink.com 1.10,2013-11-26 07:09:00,
2013-11-26 01:24:00,66.3,66.0,29.80,East,91,3.0,4.0,100,0.13,,,0.15,weatherlink.com 1.10,2013-11-26 07:24:00,
2013-11-26 01:39:00,66.6,67.0,29.79,East,83,6.0,12.0,100,0.12,,,0.15,weatherlink.com 1.10,2013-11-26 07:39:00,
2013-11-26 01:54:00,66.7,67.0,29.77,ESE,121,3.0,14.0,100,0.08,,,0.15,weatherlink.com 1.10,2013-11-26 07:54:00,
2013-11-26 02:09:00,66.7,67.0,29.77,SE,125,2.0,11.0,100,0.04,,,0.15,weatherlink.com 1.10,2013-11-26 08:09:00,
2013-11-26 02:24:00,66.7,67.0,29.75,SE,134,3.0,13.0,100,0.06,,,0.21,weatherlink.com 1.10,2013-11-26 08:24:00,
2013-11-26 02:39:00,66.3,66.0,29.74,East,91,8.0,10.0,100,0.08,,,0.23,weatherlink.com 1.10,2013-11-26 08:39:00,
2013-11-26 02:54:00,66.3,66.0,29.72,SE,139,8.0,11.0,100,0.09,,,0.24,weatherlink.com 1.10,2013-11-26 08:54:00,
2013-11-26 03:09:00,66.6,67.0,29.71,South,186,3.0,14.0,100,0.09,,,0.24,weatherlink.com 1.10,2013-11-26 09:09:00,
2013-11-26 03:24:00,66.8,67.0,29.70,ESE,105,6.0,12.0,100,0.04,,,0.25,weatherlink.com 1.10,2013-11-26 09:24:00,
2013-11-26 03:39:00,66.9,67.0,29.70,SSE,155,6.0,13.0,100,0.07,,,0.30,weatherlink.com 1.10,2013-11-26 09:39:00,
2013-11-26 03:54:00,67.2,67.0,29.70,East,83,5.0,11.0,100,0.23,,,0.47,weatherlink.com 1.10,2013-11-26 09:54:00,
2013-11-26 04:10:00,67.2,67.0,29.70,ENE,71,0.0,8.0,100,0.29,,,0.53,weatherlink.com 1.10,2013-11-26 10:10:00,
2013-11-26 04:25:00,52.6,51.0,29.74,West,262,2.0,16.0,94,0.48,,,0.73,weatherlink.com 1.10,2013-11-26 10:25:00,
2013-11-26 04:40:00,49.1,48.0,29.77,ENE,76,1.0,10.0,97,0.51,,,0.81,weatherlink.com 1.10,2013-11-26 10:40:00,
2013-11-26 04:55:00,47.5,47.0,29.76,West,260,1.0,13.0,98,0.35,,,0.83,weatherlink.com 1.10,2013-11-26 10:55:00,
2013-11-26 05:10:00,46.5,46.0,29.75,ENE,60,4.0,11.0,99,0.30,,,0.84,weatherlink.com 1.10,2013-11-26 11:10:00,
2013-11-26 05:25:00,46.1,46.0,29.76,West,266,2.0,14.0,99,0.12,,,0.85,weatherlink.com 1.10,2013-11-26 11:25:00,
2013-11-26 05:40:00,45.7,46.0,29.76,NNE,32,3.0,18.0,99,0.06,,,0.87,weatherlink.com 1.10,2013-11-26 11:40:00,
2013-11-26 05:55:00,45.3,45.0,29.77,SW,221,0.0,12.0,99,0.14,,,0.97,weatherlink.com 1.10,2013-11-26 11:55:00,
2013-11-26 06:10:00,45.5,45.0,29.76,North,354,2.0,10.0,99,0.15,,,0.99,weatherlink.com 1.10,2013-11-26 12:10:00,
2013-11-26 06:25:00,45.6,46.0,29.76,NNE,32,2.0,9.0,100,0.14,,,0.99,weatherlink.com 1.10,2013-11-26 12:25:00,
2013-11-26 06:40:00,45.8,46.0,29.77,NNW,344,0.0,9.0,100,0.12,,,0.99,weatherlink.com 1.10,2013-11-26 12:40:00,
2013-11-26 06:55:00,45.9,46.0,29.76,NE,39,0.0,7.0,100,0.02,,,0.99,weatherlink.com 1.10,2013-11-26 12:55:00,
2013-11-26 07:10:00,46.1,46.0,29.76,NW,309,1.0,8.0,100,0.00,,,0.99,weatherlink.com 1.10,2013-11-26 13:10:00,
2013-11-26 07:25:00,46.6,47.0,29.75,NE,41,5.0,7.0,100,0.00,,,0.99,weatherlink.com 1.10,2013-11-26 13:25:00,
2013-11-26 07:40:00,47.3,47.0,29.76,NE,53,8.0,14.0,100,0.00,,,0.99,weatherlink.com 1.10,2013-11-26 13:40:00,
2013-11-26 07:55:00,47.7,48.0,29.76,NE,43,1.0,10.0,100,0.00,,,0.99,weatherlink.com 1.10,2013-11-26 13:55:00,
2013-11-26 08:10:00,48.3,48.0,29.75,NW,316,0.0,10.0,100,0.00,,,0.99,weatherlink.com 1.10,2013-11-26 14:10:00,
2013-11-26 08:25:00,49.9,50.0,29.74,SSE,155,2.0,10.0,100,0.00,,,0.99,weatherlink.com 1.10,2013-11-26 14:25:00,
2013-11-26 08:40:00,51.5,51.0,29.73,NE,55,3.0,7.0,99,0.00,,,0.99,weatherlink.com 1.10,2013-11-26 14:40:00,
2013-11-26 08:55:00,52.2,52.0,29.73,NE,41,7.0,13.0,98,0.00,,,0.99,weatherlink.com 1.10,2013-11-26 14:55:00,
2013-11-26 09:10:00,52.7,52.0,29.73,NE,49,5.0,16.0,97,0.00,,,0.99,weatherlink.com 1.10,2013-11-26 15:10:00,
2013-11-26 09:25:00,53.3,53.0,29.73,NE,37,2.0,10.0,97,0.00,,,0.99,weatherlink.com 1.10,2013-11-26 15:25:00,
2013-11-26 09:40:00,54.9,54.0,29.74,ENE,73,0.0,6.0,96,0.00,,,0.99,weatherlink.com 1.10,2013-11-26 15:40:00,
2013-11-26 09:55:00,56.8,55.0,29.80,West,281,3.0,7.0,92,0.00,,,0.99,weatherlink.com 1.10,2013-11-26 15:55:00,
2013-11-26 10:10:00,56.7,54.0,29.78,SW,231,3.0,-999.0,91,-99.99,,,0.99,weatherlink.com 1.10,2013-11-26 16:10:00,
2013-11-26 10:25:00,56.3,54.0,29.79,WSW,244,2.0,4.0,93,0.00,,,0.99,weatherlink.com 1.10,2013-11-26 16:25:00,
2013-11-26 10:40:00,55.3,54.0,29.80,WNW,303,0.0,10.0,94,0.00,,,0.99,weatherlink.com 1.10,2013-11-26 16:40:00,
2013-11-26 10:55:00,53.9,52.0,29.80,WSW,244,2.0,6.0,94,0.00,,,0.99,weatherlink.com 1.10,2013-11-26 16:55:00,
2013-11-26 11:10:00,53.2,52.0,29.79,SE,139,0.0,7.0,96,0.00,,,0.99,weatherlink.com 1.10,2013-11-26 17:10:00,
2013-11-26 11:25:00,52.3,51.0,29.80,NW,311,3.0,10.0,96,0.00,,,0.99,weatherlink.com 1.10,2013-11-26 17:25:00,
2013-11-26 11:40:00,51.8,51.0,29.78,North,359,5.0,10.0,96,0.00,,,0.99,weatherlink.com 1.10,2013-11-26 17:40:00,
2013-11-26 11:55:00,51.4,50.0,29.76,NW,326,0.0,8.0,96,0.00,,,0.99,weatherlink.com 1.10,2013-11-26 17:55:00,
2013-11-26 12:25:00,51.4,50.0,29.76,West,273,2.0,11.0,96,0.00,,,0.99,weatherlink.com 1.10,2013-11-26 18:25:00,
2013-11-26 12:40:00,51.7,50.0,29.74,SSE,157,1.0,10.0,94,0.00,,,0.99,weatherlink.com 1.10,2013-11-26 18:40:00,
2013-11-26 12:55:00,51.8,50.0,29.75,ENE,72,2.0,8.0,93,0.00,,,0.99,weatherlink.com 1.10,2013-11-26 18:55:00,
2013-11-26 13:11:00,51.2,49.0,29.74,ENE,62,6.0,8.0,93,0.00,,,0.99,weatherlink.com 1.10,2013-11-26 19:11:00,
2013-11-26 13:25:00,51.2,49.0,29.74,SSW,208,2.0,9.0,92,0.00,,,0.99,weatherlink.com 1.10,2013-11-26 19:25:00,
2013-11-26 13:40:00,51.0,49.0,29.75,NE,55,0.0,10.0,91,0.00,,,0.99,weatherlink.com 1.10,2013-11-26 19:40:00,
2013-11-26 13:55:00,50.6,48.0,29.75,NNW,338,4.0,8.0,92,0.00,,,0.99,weatherlink.com 1.10,2013-11-26 19:55:00,
2013-11-26 14:10:00,50.2,48.0,29.75,NNE,15,1.0,10.0,92,0.00,,,0.99,weatherlink.com 1.10,2013-11-26 20:10:00,
2013-11-26 14:25:00,50.3,48.0,29.75,West,269,0.0,8.0,91,0.00,,,0.99,weatherlink.com 1.10,2013-11-26 20:25:00,
2013-11-26 14:41:00,50.3,48.0,29.75,ESE,121,0.0,8.0,92,0.00,,,0.99,weatherlink.com 1.10,2013-11-26 20:41:00,
2013-11-26 14:55:00,50.1,48.0,29.75,West,278,5.0,8.0,91,0.00,,,0.99,weatherlink.com 1.10,2013-11-26 20:55:00,
2013-11-26 15:10:00,50.1,48.0,29.77,NE,40,3.0,6.0,91,0.00,,,0.99,weatherlink.com 1.10,2013-11-26 21:10:00,
2013-11-26 15:25:00,50.1,48.0,29.75,NE,48,5.0,7.0,91,0.00,,,0.99,weatherlink.com 1.10,2013-11-26 21:25:00,
2013-11-26 15:40:00,50.4,48.0,29.74,NE,52,2.0,7.0,91,0.00,,,0.99,weatherlink.com 1.10,2013-11-26 21:40:00,
2013-11-26 15:55:00,50.5,48.0,29.74,NNW,329,0.0,9.0,91,0.00,,,0.99,weatherlink.com 1.10,2013-11-26 21:55:00,
2013-11-26 16:10:00,50.7,48.0,29.76,NW,316,0.0,6.0,91,0.00,,,0.99,weatherlink.com 1.10,2013-11-26 22:10:00,
2013-11-26 16:25:00,50.6,48.0,29.77,NW,304,0.0,4.0,91,0.00,,,0.99,weatherlink.com 1.10,2013-11-26 22:25:00,
2013-11-26 16:40:00,50.4,48.0,29.79,NNW,331,1.0,5.0,92,0.00,,,0.99,weatherlink.com 1.10,2013-11-26 22:40:00,
2013-11-26 16:55:00,50.1,49.0,29.81,NW,307,0.0,4.0,94,0.00,,,0.99,weatherlink.com 1.10,2013-11-26 22:55:00,
2013-11-26 17:10:00,49.3,48.0,29.82,NNW,330,1.0,4.0,96,0.01,,,1.00,weatherlink.com 1.10,2013-11-26 23:10:00,
2013-11-26 17:25:00,49.1,48.0,29.83,WNW,283,0.0,1.0,97,0.02,,,1.01,weatherlink.com 1.10,2013-11-26 23:25:00,
2013-11-26 17:40:00,48.9,48.0,29.84,WNW,293,1.0,3.0,98,0.03,,,1.02,weatherlink.com 1.10,2013-11-26 23:40:00,
2013-11-26 17:55:00,48.6,48.0,29.83,West,264,0.0,6.0,98,0.03,,,1.02,weatherlink.com 1.10,2013-11-26 23:55:00,
2013-11-26 18:10:00,48.5,48.0,29.84,WNW,297,0.0,4.0,98,0.03,,,1.03,weatherlink.com 1.10,2013-11-27 00:10:00,
2013-11-26 18:25:00,48.2,48.0,29.85,NNE,29,0.0,8.0,99,0.02,,,1.03,weatherlink.com 1.10,2013-11-27 00:25:00,
2013-11-26 18:41:00,47.9,48.0,29.85,West,278,2.0,4.0,99,0.01,,,1.03,weatherlink.com 1.10,2013-11-27 00:41:00,
2013-11-26 18:56:00,47.5,47.0,29.86,WSW,255,0.0,9.0,98,0.01,,,1.03,weatherlink.com 1.10,2013-11-27 00:56:00,
2013-11-26 19:11:00,47.3,47.0,29.86,WNW,287,0.0,6.0,98,0.00,,,1.03,weatherlink.com 1.10,2013-11-27 01:11:00,
2013-11-26 19:26:00,47.3,47.0,29.87,West,272,1.0,8.0,98,0.00,,,1.03,weatherlink.com 1.10,2013-11-27 01:26:00,
2013-11-26 19:41:00,47.3,47.0,29.87,West,278,1.0,4.0,99,0.00,,,1.03,weatherlink.com 1.10,2013-11-27 01:41:00,
2013-11-26 19:56:00,47.2,47.0,29.87,WNW,290,1.0,5.0,99,0.00,,,1.03,weatherlink.com 1.10,2013-11-27 01:56:00,
2013-11-26 20:11:00,46.7,46.0,29.87,WNW,302,0.0,7.0,98,0.00,,,1.03,weatherlink.com 1.10,2013-11-27 02:11:00,
2013-11-26 20:26:00,45.9,45.0,29.88,WNW,302,0.0,7.0,98,0.00,,,1.03,weatherlink.com 1.10,2013-11-27 02:26:00,
2013-11-26 20:41:00,45.3,45.0,29.88,West,261,0.0,8.0,98,0.01,,,1.04,weatherlink.com 1.10,2013-11-27 02:41:00,
2013-11-26 20:56:00,44.6,44.0,29.87,East,87,2.0,13.0,98,0.01,,,1.04,weatherlink.com 1.10,2013-11-27 02:56:00,
2013-11-26 21:11:00,44.4,44.0,29.88,NW,307,1.0,7.0,98,0.01,,,1.04,weatherlink.com 1.10,2013-11-27 03:11:00,
2013-11-26 21:26:00,44.3,44.0,29.89,NW,314,2.0,8.0,98,0.01,,,1.04,weatherlink.com 1.10,2013-11-27 03:26:00,
2013-11-26 21:42:00,44.2,44.0,29.90,WNW,287,1.0,8.0,98,0.00,,,1.04,weatherlink.com 1.10,2013-11-27 03:42:00,
2013-11-26 21:56:00,44.1,44.0,29.90,NNW,329,0.0,9.0,98,0.00,,,1.04,weatherlink.com 1.10,2013-11-27 03:56:00,
2013-11-26 22:11:00,44.1,44.0,29.90,NW,307,0.0,8.0,98,0.01,,,1.05,weatherlink.com 1.10,2013-11-27 04:11:00,
2013-11-26 22:26:00,44.1,44.0,29.91,WNW,295,1.0,7.0,98,0.01,,,1.05,weatherlink.com 1.10,2013-11-27 04:26:00,
2013-11-26 22:41:00,44.0,44.0,29.92,NW,310,3.0,4.0,98,0.03,,,1.07,weatherlink.com 1.10,2013-11-27 04:41:00,
2013-11-26 22:56:00,43.9,43.0,29.92,WNW,297,1.0,9.0,98,0.05,,,1.09,weatherlink.com 1.10,2013-11-27 04:56:00,
2013-11-26 23:11:00,43.6,43.0,29.93,WNW,290,0.0,11.0,98,0.05,,,1.10,weatherlink.com 1.10,2013-11-27 05:11:00,
2013-11-26 23:26:00,43.3,43.0,29.94,SW,216,1.0,8.0,98,0.08,,,1.13,weatherlink.com 1.10,2013-11-27 05:26:00,
2013-11-26 23:41:00,43.1,43.0,29.94,WNW,282,1.0,7.0,98,0.08,,,1.15,weatherlink.com 1.10,2013-11-27 05:41:00,
2013-11-26 23:56:00,42.9,42.0,29.94,WNW,293,0.0,7.0,98,0.09,,,1.18,weatherlink.com 1.10,2013-11-27 05:56:00,